Flag for U.S.A. Weather past 2 weeks in Denver, Colorado, U.S.A.

Now
52 °F

Passing clouds.


Feels Like: 47 °F
Forecast: 47 / 71 °F
Wind: 13 mph from Southwest

Location: Buckley Air Force Base

Current Time: Apr 1, 2015 at 4:14:18 AM

Latest Report: Apr 1, 2015 at 3:58 AM


Visibility: 10 mi

Pressure: 29.56 "Hg

Humidity: 32%

Dew point: 23 °F

Location of DenverLocation

Historic Weather in Denver — Graph

°F

Denver temperature yesterday

Maximum temperature yesterday: 76 °F (at 3:58 PM)
Minimum temperature yesterday: 44 °F (at 6:58 AM)
Average temperature yesterday: 60 °F

Past Weeks' High & Low Weather Summary

 TemperatureHumidityPressure
High76 °F (Mar 28, 2:58 PM)100% (Mar 19, 12:58 AM)30.31 "Hg (Mar 19, 12:58 AM)
Low31 °F (Mar 25, 11:58 PM)8% (Mar 31, 3:58 PM)29.58 "Hg (Mar 25, 10:58 AM)
Average50 °F46%29.98 "Hg
* Reported Mar 17 2:58 AM — Apr 1 2:58 AM, Denver, Weather by CustomWeather, © 2015

Note: Actual official high and low records may vary slightly from our data, if they occured in-between our weather recording intervals... More about our weather records

Advertising

Denver weather history for previous 24 hours

 ConditionsComfort  
Time TempWeatherWind HumidityBarometerVisibility
2:58 AM
Wed, Apr 1
47 °FPassing clouds.15 mph41%29.61 "Hg10 mi
1:58 AM50 °FPassing clouds.15 mph37%29.61 "Hg10 mi
12:58 AM52 °FPassing clouds.15 mph35%29.63 "Hg10 mi
11:58 PM
Tue, Mar 31
56 °FPassing clouds.15 mph26%29.62 "Hg10 mi
10:58 PM58 °FPassing clouds.16 mph25%29.64 "Hg10 mi
9:58 PM57 °FPassing clouds.13 mph25%29.66 "Hg10 mi
8:58 PM59 °FPartly cloudy.10 mph23%29.70 "Hg10 mi
7:58 PM66 °FScattered clouds.5 mph15%29.70 "Hg10 mi
6:58 PM68 °FScattered clouds.5 mph18%29.70 "Hg10 mi
5:58 PM74 °FBroken clouds.6 mph12%29.72 "Hg10 mi
4:58 PM75 °FScattered clouds.3 mph8%29.72 "Hg10 mi
3:58 PM76 °FScattered clouds.3 mph8%29.74 "Hg10 mi
2:58 PM74 °FScattered clouds.2 mph9%29.78 "Hg10 mi
1:58 PM73 °FPassing clouds.6 mph10%29.81 "Hg10 mi
12:58 PM72 °FPassing clouds.7 mph12%29.85 "Hg10 mi
11:58 AM70 °FPassing clouds.1 mph13%29.87 "Hg10 mi
10:58 AM68 °FPassing clouds.8 mph15%29.90 "Hg10 mi
9:58 AM63 °FPassing clouds.8 mph20%29.93 "Hg10 mi
8:58 AM57 °FSunny.12 mph24%29.94 "Hg10 mi
7:58 AM49 °FSunny.7 mph35%29.96 "Hg10 mi
6:58 AM44 °FPassing clouds.12 mph38%29.96 "Hg10 mi
5:58 AM45 °FClear.12 mph37%29.94 "Hg10 mi
4:58 AM45 °FPassing clouds.9 mph38%29.94 "Hg10 mi
Weather by CustomWeather, © 2015

See weather overviewHow to use our weather pages